User: anonymous   Login
Location: Unspecified
(0.0000°N, 0.0000°E)
Time: 21:16:01
(UTC+00:00)
Language:

PAKSAT 1R - Orbit

View from above orbital plane
View from above orbital plane
View from above satellite
View from above satellite

Ground track
Ground track

The orbit data is extracted from the following two-line orbital elements,

1 37779U 11042A   16121.64849737  .00000144  00000-0  00000+0 0  9998
2 37779   0.0570  71.2423 0002867 320.0330  99.1774  1.00273375 17182
Epoch (UTC): 30 April 2016 15:33:50
Eccentricity: 0.0002867
inclination: 0.0570°
perigee height: 35773 km
apogee height: 35798 km
right ascension of ascending node: 71.2423°
argument of perigee: 320.0330°
revolutions per day: 1.00273375
mean anomaly at epoch: 99.1774°
orbit number at epoch: 1718

The dashed part of the orbit path shows where the satellite is in the earth's shadow,  

DLR